• In Belgium
  • List of Countries
  • For 7 days
  • Water Temperature
  • Satellite Maps
  • Weather Map
  • Weather Widgets
  • user-avatar
    Login

    Hourly Weather Satif

    Today, 20 November, Monday

    Time Temperature Precipitation Wind Pressure Humidity
    00:00 +5°C° 0 mm 0 mps 674 mmHg 69%
    01:00 +5°C° 0 mm 0 mps 674 mmHg 68%
    02:00 +5°C° 0 mm 0 mps 674 mmHg 67%
    03:00 +5°C° 0 mm 0 mps 674 mmHg 66%
    04:00 +4°C° 0 mm 0 mps 674 mmHg 64%
    05:00 +5°C° 0 mm 1 mps 674 mmHg 62%
    06:00 +4°C° 0 mm 0 mps 674 mmHg 63%
    07:00 +6°C° 0 mm 0 mps 675 mmHg 54%
    08:00 +8°C° 0 mm 0 mps 675 mmHg 45%
    09:00 +10°C° 0 mm 0 mps 676 mmHg 37%
    10:00 +11°C° 0 mm 0 mps 676 mmHg 32%
    11:00 +12°C° 0 mm 0 mps 677 mmHg 28%
    12:00 +14°C° 0 mm 0 mps 677 mmHg 22%
    13:00 +15°C° 0 mm 1 mps 677 mmHg 23%
    14:00 +15°C° 0 mm 1 mps 677 mmHg 24%
    15:00 +15°C° 0 mm 1 mps 676 mmHg 25%
    16:00 +13°C° 0 mm 1 mps 676 mmHg 31%
    17:00 +11°C° 0 mm 1 mps 676 mmHg 37%
    18:00 +9°C° 0 mm 0 mps 675 mmHg 44%
    19:00 +8°C° 0 mm 0 mps 675 mmHg 43%
    20:00 +9°C° 0 mm 1 mps 675 mmHg 42%
    21:00 +9°C° 0 mm 1 mps 675 mmHg 42%
    22:00 +9°C° 0 mm 1 mps 675 mmHg 41%
    23:00 +8°C° 0 mm 1 mps 675 mmHg 41%

    Tomorrow, 21 November, Tuesday

    Time Temperature Precipitation Wind Pressure Humidity
    00:00 +8°C° 0 mm 1 mps 675 mmHg 41%
    01:00 +8°C° 0 mm 1 mps 675 mmHg 42%
    02:00 +7°C° 0 mm 1 mps 675 mmHg 43%
    03:00 +7°C° 0 mm 1 mps 674 mmHg 44%
    04:00 +7°C° 0 mm 1 mps 674 mmHg 44%
    05:00 +7°C° 0 mm 1 mps 674 mmHg 45%
    06:00 +6°C° 0 mm 1 mps 674 mmHg 45%
    07:00 +8°C° 0 mm 1 mps 675 mmHg 41%
    08:00 +10°C° 0 mm 1 mps 676 mmHg 36%
    09:00 +12°C° 0 mm 1 mps 676 mmHg 32%
    10:00 +13°C° 0 mm 1 mps 676 mmHg 29%
    11:00 +15°C° 0 mm 1 mps 676 mmHg 27%
    12:00 +16°C° 0 mm 2 mps 676 mmHg 24%
    13:00 +16°C° 0 mm 2 mps 676 mmHg 25%
    14:00 +16°C° 0 mm 2 mps 676 mmHg 26%
    15:00 +16°C° 0 mm 2 mps 676 mmHg 27%
    16:00 +14°C° 0 mm 2 mps 675 mmHg 32%
    17:00 +12°C° 0 mm 1 mps 675 mmHg 37%
    18:00 +11°C° 0 mm 1 mps 675 mmHg 42%
    19:00 +10°C° 0 mm 1 mps 674 mmHg 42%
    20:00 +9°C° 0 mm 1 mps 674 mmHg 43%
    21:00 +9°C° 0 mm 1 mps 674 mmHg 43%
    22:00 +9°C° 0 mm 1 mps 674 mmHg 42%
    23:00 +9°C° 0 mm 1 mps 674 mmHg 41%

    Day after tomorrow, 22 November, Wednesday

    Time Temperature Precipitation Wind Pressure Humidity
    00:00 +7°C° 0 mm 2 mps 674 mmHg 40%
    01:00 +7°C° 0 mm 2 mps 673 mmHg 40%
    02:00 +7°C° 0 mm 2 mps 673 mmHg 41%
    03:00 +6°C° 0 mm 2 mps 673 mmHg 41%
    04:00 +6°C° 0 mm 2 mps 673 mmHg 42%
    05:00 +6°C° 0 mm 2 mps 672 mmHg 42%
    06:00 +6°C° 0 mm 2 mps 672 mmHg 43%
    07:00 +8°C° 0 mm 2 mps 673 mmHg 39%
    08:00 +9°C° 0 mm 2 mps 674 mmHg 36%
    09:00 +12°C° 0 mm 2 mps 674 mmHg 32%
    10:00 +13°C° 0 mm 2 mps 674 mmHg 29%
    11:00 +14°C° 0 mm 2 mps 674 mmHg 25%
    12:00 +16°C° 0 mm 2 mps 674 mmHg 21%
    13:00 +16°C° 0 mm 2 mps 674 mmHg 21%
    14:00 +15°C° 0 mm 2 mps 674 mmHg 22%
    15:00 +15°C° 0 mm 2 mps 674 mmHg 23%
    16:00 +14°C° 0 mm 1 mps 673 mmHg 26%
    17:00 +12°C° 0 mm 1 mps 673 mmHg 30%
    18:00 +11°C° 0 mm 1 mps 673 mmHg 33%
    19:00 +10°C° 0 mm 1 mps 673 mmHg 33%
    20:00 +10°C° 0 mm 1 mps 673 mmHg 33%
    21:00 +8°C° 0 mm 2 mps 673 mmHg 32%
    22:00 +9°C° 0 mm 1 mps 673 mmHg 33%
    23:00 +8°C° 0 mm 1 mps 673 mmHg 33%

    23 November, Thursday

    Time Temperature Precipitation Wind Pressure Humidity
    00:00 +8°C° 0 mm 1 mps 673 mmHg 33%
    01:00 +7°C° 0 mm 1 mps 673 mmHg 34%
    02:00 +7°C° 0 mm 1 mps 672 mmHg 34%
    03:00 +7°C° 0 mm 1 mps 672 mmHg 34%
    04:00 +6°C° 0 mm 1 mps 672 mmHg 34%
    05:00 +6°C° 0 mm 1 mps 672 mmHg 34%
    06:00 +6°C° 0 mm 1 mps 673 mmHg 34%
    07:00 +8°C° 0 mm 1 mps 674 mmHg 30%
    08:00 +10°C° 0 mm 1 mps 675 mmHg 27%
    09:00 +12°C° 0 mm 1 mps 676 mmHg 23%
    10:00 +13°C° 0 mm 1 mps 676 mmHg 21%
    11:00 +13°C° 0 mm 0 mps 676 mmHg 19%
    12:00 +14°C° 0 mm 0 mps 676 mmHg 18%
    13:00 +15°C° 0 mm 1 mps 676 mmHg 19%
    14:00 +15°C° 0 mm 1 mps 676 mmHg 21%
    15:00 +15°C° 0 mm 1 mps 676 mmHg 23%
    16:00 +14°C° 0 mm 1 mps 675 mmHg 29%
    17:00 +12°C° 0 mm 1 mps 675 mmHg 35%
    18:00 +10°C° 0 mm 1 mps 675 mmHg 42%
    19:00 +10°C° 0 mm 1 mps 675 mmHg 43%
    20:00 +9°C° 0 mm 1 mps 675 mmHg 45%
    21:00 +9°C° 0 mm 1 mps 675 mmHg 46%
    22:00 +8°C° 0 mm 1 mps 675 mmHg 46%
    23:00 +8°C° 0 mm 1 mps 675 mmHg 47%

    24 November, Friday

    Time Temperature Precipitation Wind Pressure Humidity
    00:00 +8°C° 0 mm 1 mps 675 mmHg 47%
    01:00 +7°C° 0 mm 1 mps 675 mmHg 46%
    02:00 +7°C° 0 mm 1 mps 674 mmHg 46%
    03:00 +7°C° 0 mm 1 mps 674 mmHg 46%
    04:00 +7°C° 0 mm 1 mps 674 mmHg 45%
    05:00 +6°C° 0 mm 1 mps 674 mmHg 45%
    06:00 +6°C° 0 mm 1 mps 674 mmHg 45%
    07:00 +8°C° 0 mm 1 mps 675 mmHg 40%
    08:00 +11°C° 0 mm 1 mps 676 mmHg 35%
    09:00 +13°C° 0 mm 1 mps 677 mmHg 30%
    10:00 +14°C° 0 mm 1 mps 677 mmHg 27%
    11:00 +15°C° 0 mm 1 mps 677 mmHg 24%
    12:00 +16°C° 0 mm 1 mps 677 mmHg 21%
    13:00 +16°C° 0 mm 1 mps 677 mmHg 22%
    14:00 +16°C° 0 mm 1 mps 676 mmHg 23%
    15:00 +16°C° 0 mm 1 mps 676 mmHg 23%
    16:00 +14°C° 0 mm 1 mps 676 mmHg 27%
    17:00 +13°C° 0 mm 1 mps 676 mmHg 30%
    18:00 +11°C° 0 mm 1 mps 675 mmHg 34%
    19:00 +10°C° 0 mm 2 mps 675 mmHg 34%
    20:00 +9°C° 0 mm 2 mps 675 mmHg 33%
    21:00 +9°C° 0 mm 2 mps 676 mmHg 33%
    22:00 +8°C° 0 mm 2 mps 675 mmHg 34%
    23:00 +8°C° 0 mm 2 mps 675 mmHg 35%

    25 November, Saturday

    Time Temperature Precipitation Wind Pressure Humidity
    00:00 +8°C° 0 mm 2 mps 675 mmHg 36%
    01:00 +7°C° 0 mm 2 mps 675 mmHg 37%
    02:00 +7°C° 0 mm 2 mps 675 mmHg 38%
    03:00 +7°C° 0 mm 2 mps 674 mmHg 39%
    04:00 +7°C° 0 mm 2 mps 674 mmHg 40%
    05:00 +6°C° 0 mm 2 mps 674 mmHg 41%
    06:00 +5°C° 0 mm 3 mps 674 mmHg 43%
    07:00 +8°C° 0 mm 3 mps 675 mmHg 41%
    08:00 +9°C° 0 mm 3 mps 676 mmHg 39%
    09:00 +11°C° 0 mm 3 mps 677 mmHg 38%
    10:00 +12°C° 0 mm 3 mps 677 mmHg 35%
    11:00 +13°C° 0 mm 3 mps 676 mmHg 32%
    12:00 +16°C° 0 mm 3 mps 676 mmHg 30%
    13:00 +16°C° 0 mm 3 mps 676 mmHg 30%
    14:00 +16°C° 0 mm 3 mps 676 mmHg 31%
    15:00 +16°C° 0 mm 2 mps 676 mmHg 32%
    16:00 +14°C° 0 mm 2 mps 675 mmHg 37%
    17:00 +12°C° 0 mm 2 mps 675 mmHg 42%
    18:00 +10°C° 0 mm 2 mps 675 mmHg 47%
    19:00 +9°C° 0 mm 2 mps 675 mmHg 50%
    20:00 +9°C° 0 mm 2 mps 675 mmHg 53%
    21:00 +8°C° 0 mm 2 mps 676 mmHg 56%
    22:00 +8°C° 0 mm 2 mps 675 mmHg 57%
    23:00 +8°C° 0 mm 2 mps 675 mmHg 59%
    Show more